GW2622 Weather Reports


time (UTC)temp
C
wind
direction
speed
KPH
gust
KPH
rain 1hr
cm
rain 24hr
cm
rain mn
cm
humidity
%
barometer
mb
20260506062306 6 308 1.6 1.6 0.00 0.00 0.00 62 1014.6
20260506061802 6 302 1.6 4.8 0.00 0.00 0.00 59 1014.6
20260506061259 6 323 3.2 3.2 0.00 0.00 0.00 57 1014.5
20260506060757 6 335 0.0 1.6 0.00 0.00 0.00 58 1014.6
20260506060255 6 335 1.6 1.6 0.00 0.00 0.00 58 1014.4
20260506051226 7 336 1.6 3.2 0.00 0.00 0.00 50 1013.5
20260506050724 7 336 1.6 3.2 0.00 0.00 0.00 49 1013.5
20260506050221 7 342 3.2 4.8 0.00 0.00 0.00 49 1013.3
20260506044707 8 335 0.0 3.2 0.00 0.00 0.00 49 1013.1
20260506044203 8 336 3.2 3.2 0.00 0.00 0.00 49 1013.2
20260506043701 8 354 3.2 4.8 0.00 0.00 0.00 47 1013.4
20260506043158 8 343 4.8 4.8 0.00 0.00 0.00 46 1013.3
20260506042657 8 328 0.0 3.2 0.00 0.00 0.00 48 1013.3
20260506042155 8 321 1.6 3.2 0.00 0.00 0.00 47 1013.3
20260506041653 9 346 1.6 8.0 0.00 0.00 0.00 46 1013.1
20260506041150 9 345 6.4 11.3 0.00 0.00 0.00 45 1013.1
20260506040648 9 337 4.8 11.3 0.00 0.00 0.00 45 1013.2
20260506040144 9 4 6.4 9.7 0.00 0.00 0.00 44 1012.7
20260506035641 10 15 8.0 12.9 0.00 0.00 0.00 44 1012.9
20260506035137 10 335 14.5 20.9 0.00 0.00 0.00 43 1013.0
20260506034635 10 17 4.8 9.7 0.00 0.00 0.00 44 1013.0
20260506034132 10 318 4.8 11.3 0.00 0.00 0.00 43 1013.1
20260506033629 10 23 6.4 9.7 0.00 0.00 0.00 45 1012.8
20260506033126 10 19 6.4 14.5 0.00 0.00 0.00 44 1012.9
20260506032623 10 345 6.4 11.3 0.00 0.00 0.00 44 1012.7
20260506032120 10 357 4.8 9.7 0.00 0.00 0.00 45 1012.7
20260506031617 10 347 4.8 14.5 0.00 0.00 0.00 45 1012.7
20260506031114 10 359 8.0 11.3 0.00 0.00 0.00 44 1012.6
20260506030613 10 273 3.2 11.3 0.00 0.00 0.00 44 1012.6
20260506030109 10 307 6.4 9.7 0.00 0.00 0.00 43 1012.7
20260506025606 10 300 3.2 11.3 0.00 0.00 0.00 43 1012.4
20260506025102 10 293 4.8 8.0 0.00 0.00 0.00 43 1012.4
20260506024600 10 269 6.4 11.3 0.00 0.00 0.00 42 1012.3
20260506024056 11 302 3.2 8.0 0.00 0.00 0.00 41 1012.2
20260506023552 11 310 1.6 9.7 0.00 0.00 0.00 42 1012.1
20260506023050 11 334 3.2 3.2 0.00 0.00 0.00 41 1012.1
20260506022547 11 306 6.4 9.7 0.00 0.00 0.00 40 1012.0
20260506022044 11 299 0.0 4.8 0.00 0.00 0.00 40 1011.9
20260506021541 11 296 4.8 11.3 0.00 0.00 0.00 39 1012.0
20260506021039 11 307 6.4 9.7 0.00 0.00 0.00 39 1011.9
20260506020536 11 308 6.4 9.7 0.00 0.00 0.00 39 1011.9
20260506020033 11 312 1.6 12.9 0.00 0.00 0.00 39 1011.8
20260506015531 11 286 4.8 9.7 0.00 0.00 0.00 39 1011.9
20260506015027 11 314 8.0 9.7 0.00 0.00 0.00 39 1011.7
20260506014525 11 313 4.8 9.7 0.00 0.00 0.00 39 1011.8
20260506014021 11 305 9.7 12.9 0.00 0.00 0.00 39 1011.7
20260506013519 11 325 3.2 11.3 0.00 0.00 0.00 39 1011.7
20260506013016 12 313 8.0 9.7 0.00 0.00 0.00 39 1011.6
20260506012512 12 295 3.2 12.9 0.00 0.00 0.00 39 1011.6
20260506012009 12 319 8.0 24.1 0.00 0.00 0.00 38 1011.7
20260506011506 12 303 4.8 11.3 0.00 0.00 0.00 39 1011.6
20260506011002 12 331 4.8 11.3 0.00 0.00 0.00 38 1011.6
20260506010502 12 301 9.7 16.1 0.00 0.00 0.00 38 1011.5
20260506005957 12 277 11.3 16.1 0.00 0.00 0.00 37 1011.4
20260506005455 12 258 8.0 11.3 0.00 0.00 0.00 38 1011.3
20260506004950 12 31 9.7 12.9 0.00 0.00 0.00 37 1011.2
20260506004448 12 266 6.4 17.7 0.00 0.00 0.00 39 1011.2
20260506003944 12 313 11.3 16.1 0.00 0.00 0.00 39 1010.9
20260506003440 12 300 0.0 3.2 0.00 0.00 0.00 39 1010.9
20260506002931 12 279 9.7 12.9 0.00 0.00 0.00 39 1010.8
20260506002428 12 278 8.0 11.3 0.00 0.00 0.00 37 1010.8
20260506001923 12 315 8.0 12.9 0.00 0.00 0.00 37 1010.9
20260506001421 13 304 6.4 9.7 0.00 0.00 0.00 38 1010.8
20260506000918 13 282 4.8 8.0 0.00 0.00 0.00 38 1010.7
20260506000416 13 335 9.7 14.5 0.00 0.00 0.00 38 1010.7
20260505235912 13 305 11.3 22.5 0.00 0.00 0.00 37 1010.8
20260505235410 13 314 4.8 11.3 0.00 0.00 0.00 37 1010.9
20260505234907 13 338 9.7 16.1 0.00 0.00 0.00 36 1010.7
20260505234404 13 308 8.0 12.9 0.00 0.00 0.00 35 1010.6
20260505233901 13 253 8.0 16.1 0.00 0.00 0.00 35 1010.6
20260505233359 13 305 9.7 12.9 0.00 0.00 0.00 35 1010.7
20260505232856 13 321 4.8 14.5 0.00 0.00 0.00 36 1010.6
20260505232354 13 358 8.0 14.5 0.00 0.00 0.00 36 1010.5
20260505231850 13 316 12.9 17.7 0.00 0.00 0.00 36 1010.4
20260505231348 13 356 4.8 14.5 0.00 0.00 0.00 36 1010.5
20260505230846 13 311 1.6 14.5 0.00 0.00 0.00 35 1010.5
20260505230343 13 282 12.9 25.7 0.00 0.00 0.00 34 1010.4
20260505225839 13 302 9.7 20.9 0.00 0.00 0.00 35 1010.3
20260505225336 13 341 4.8 20.9 0.00 0.00 0.00 35 1010.2
20260505224830 13 326 12.9 17.7 0.00 0.00 0.00 35 1010.4
20260505224329 13 16 8.0 24.1 0.00 0.00 0.00 35 1010.2
20260505223826 14 10 6.4 24.1 0.00 0.00 0.00 36 1010.4
20260505223323 14 336 6.4 22.5 0.00 0.00 0.00 35 1010.3
20260505222818 14 20 8.0 17.7 0.00 0.00 0.00 34 1010.3
20260505222315 15 338 12.9 20.9 0.00 0.00 0.00 34 1010.2
20260505221812 15 6 8.0 14.5 0.00 0.00 0.00 36 1010.2
20260505221308 15 329 14.5 20.9 0.00 0.00 0.00 34 1009.9
20260505220806 15 283 11.3 24.1 0.00 0.00 0.00 36 1010.0
20260505220303 15 292 6.4 12.9 0.00 0.00 0.00 41 1009.8
20260505215801 14 256 11.3 14.5 0.00 0.00 0.00 40 1009.7
20260505215258 14 221 9.7 12.9 0.00 0.00 0.00 43 1010.0
20260505214756 14 249 8.0 11.3 0.00 0.00 0.00 41 1010.2
20260505214254 14 243 6.4 9.7 0.00 0.00 0.00 41 1009.9
20260505213751 14 284 9.7 11.3 0.00 0.00 0.00 40 1010.2
20260505213248 14 252 4.8 12.9 0.00 0.00 0.00 40 1010.3
20260505212744 14 217 9.7 11.3 0.00 0.00 0.00 43 1010.3
20260505212242 14 278 1.6 12.9 0.00 0.00 0.00 42 1010.3
20260505211738 14 246 6.4 17.7 0.00 0.00 0.00 41 1010.4
20260505211236 15 262 3.2 4.8 0.00 0.00 0.00 43 1010.4
20260505210732 14 281 1.6 8.0 0.00 0.00 0.00 43 1010.4
20260505210229 14 262 4.8 8.0 0.00 0.00 0.00 41 1010.4
20260505205726 13 298 1.6 3.2 0.00 0.00 0.00 42 1010.6
20260505205224 14 295 4.8 9.7 0.00 0.00 0.00 41 1010.5
20260505204720 14 208 6.4 9.7 0.00 0.00 0.00 42 1010.7
20260505204219 13 262 3.2 9.7 0.00 0.00 0.00 44 1010.8
20260505203715 13 263 8.0 9.7 0.00 0.00 0.00 41 1011.0
20260505203212 13 226 11.3 14.5 0.00 0.00 0.00 41 1010.9
20260505202708 13 297 3.2 3.2 0.00 0.00 0.00 43 1011.2
20260505202204 13 280 6.4 12.9 0.00 0.00 0.00 42 1011.1
20260505201701 13 313 3.2 11.3 0.00 0.00 0.00 42 1011.2
20260505201159 13 287 0.0 8.0 0.00 0.00 0.00 41 1011.2
20260505200657 13 263 1.6 8.0 0.00 0.00 0.00 42 1011.2
20260505200153 13 294 12.9 17.7 0.00 0.00 0.00 42 1011.4
20260505195649 14 282 4.8 11.3 0.00 0.00 0.00 43 1011.3
20260505195147 13 259 4.8 11.3 0.00 0.00 0.00 41 1011.3
20260505194644 13 286 9.7 14.5 0.00 0.00 0.00 42 1011.6
20260505194140 13 187 8.0 12.9 0.00 0.00 0.00 41 1011.7
20260505193636 13 291 11.3 14.5 0.00 0.00 0.00 41 1011.6
20260505193133 13 294 3.2 8.0 0.00 0.00 0.00 43 1011.7
20260505192632 14 317 8.0 12.9 0.00 0.00 0.00 41 1011.6
20260505192129 13 277 0.0 11.3 0.00 0.00 0.00 44 1011.6
20260505191628 13 250 6.4 11.3 0.00 0.00 0.00 43 1011.6
20260505191125 13 328 9.7 14.5 0.00 0.00 0.00 43 1011.6
20260505190621 14 296 8.0 14.5 0.00 0.00 0.00 41 1011.8
20260505190116 13 332 4.8 12.9 0.00 0.00 0.00 42 1011.6
20260505185613 14 323 3.2 4.8 0.00 0.00 0.00 42 1011.6
20260505185109 14 224 8.0 11.3 0.00 0.00 0.00 40 1011.7
20260505184606 13 224 3.2 16.1 0.00 0.00 0.00 42 1011.7
20260505184103 13 297 3.2 8.0 0.00 0.00 0.00 45 1011.8
20260505183559 13 7 9.7 14.5 0.00 0.00 0.00 45 1011.9
20260505183057 13 44 8.0 9.7 0.00 0.00 0.00 44 1011.8
20260505182553 13 337 1.6 8.0 0.00 0.00 0.00 48 1011.8
20260505182050 13 357 11.3 14.5 0.00 0.00 0.00 45 1011.8
20260505181547 13 321 3.2 8.0 0.00 0.00 0.00 47 1012.0
20260505181044 13 352 12.9 14.5 0.00 0.00 0.00 46 1011.9
20260505180539 13 316 4.8 4.8 0.00 0.00 0.00 47 1012.0
20260505180038 13 277 1.6 4.8 0.00 0.00 0.00 49 1012.1
20260505175537 13 251 4.8 8.0 0.00 0.00 0.00 48 1012.2
20260505175035 12 282 1.6 8.0 0.00 0.00 0.00 48 1012.2
20260505174532 12 318 6.4 11.3 0.00 0.00 0.00 49 1012.5
20260505174028 13 304 4.8 9.7 0.00 0.00 0.00 48 1012.1
20260505173525 13 280 6.4 11.3 0.00 0.00 0.00 48 1012.3
20260505173021 13 165 4.8 8.0 0.00 0.00 0.00 50 1012.1
20260505172519 12 266 6.4 14.5 0.00 0.00 0.00 49 1012.3
20260505172014 12 359 6.4 11.3 0.00 0.00 0.00 50 1012.4
20260505171505 12 306 8.0 12.9 0.00 0.00 0.00 48 1012.4
20260505171002 12 287 1.6 4.8 0.00 0.00 0.00 50 1012.4
20260505170459 12 238 11.3 12.9 0.00 0.00 0.00 46 1012.4
20260505165954 12 271 4.8 4.8 0.00 0.00 0.00 47 1012.4
20260505165450 12 342 8.0 11.3 0.00 0.00 0.00 48 1012.7
20260505164946 12 337 0.0 3.2 0.00 0.00 0.00 53 1012.7
20260505164442 12 345 8.0 9.7 0.00 0.00 0.00 51 1012.5
20260505163940 11 317 1.6 12.9 0.00 0.00 0.00 51 1012.7
20260505163439 11 356 6.4 12.9 0.00 0.00 0.00 50 1012.3
20260505162938 11 297 8.0 9.7 0.00 0.00 0.00 49 1012.4
20260505162433 11 51 6.4 9.7 0.00 0.00 0.00 50 1012.1
20260505161930 12 331 8.0 11.3 0.00 0.00 0.00 50 1012.3
20260505161427 12 243 3.2 3.2 0.00 0.00 0.00 49 1012.2
20260505160924 12 351 6.4 9.7 0.00 0.00 0.00 49 1012.3
20260505160422 11 323 3.2 4.8 0.00 0.00 0.00 50 1012.2
20260505153356 11 288 1.6 3.2 0.00 0.00 0.00 55 1012.1
20260505152852 11 305 1.6 3.2 0.00 0.00 0.00 55 1012.0
20260505152349 11 341 4.8 8.0 0.00 0.00 0.00 56 1012.0
20260505151844 11 0 1.6 3.2 0.00 0.00 0.00 57 1011.9
20260505151340 11 297 3.2 3.2 0.00 0.00 0.00 55 1012.1
20260505150831 11 288 0.0 1.6 0.00 0.00 0.00 56 1012.0
20260505150328 11 308 4.8 8.0 0.00 0.00 0.00 57 1012.0
20260505140241 10 256 1.6 3.2 0.00 0.00 0.00 63 1011.5
20260505130205 10 256 0.0 0.0 0.00 0.00 0.00 67 1010.7
20260505124655 10 142 3.2 3.2 0.00 0.00 0.00 73 1010.2
20260505124151 9 226 0.0 1.6 0.00 0.00 0.00 76 1010.4
20260505123647 8 226 0.0 0.0 0.00 0.00 0.00 81 1010.4
20260505123145 8 226 0.0 1.6 0.00 0.00 0.00 82 1010.5
20260505122641 8 226 0.0 1.6 0.00 0.00 0.00 85 1010.3
20260505122138 8 183 0.0 1.6 0.00 0.00 0.00 86 1010.8
20260505121634 7 128 0.0 0.0 0.00 0.00 0.00 88 1010.8
20260505121126 7 128 0.0 0.0 0.00 0.00 0.00 88 1010.7
20260505120621 7 257 0.0 0.0 0.00 0.00 0.00 88 1011.2
20260505120117 7 257 0.0 0.0 0.00 0.00 0.00 89 1011.1
20260505115612 7 257 0.0 0.0 0.00 0.00 0.00 90 1011.1
20260505115110 7 258 0.0 0.0 0.00 0.00 0.00 90 1011.0
20260505114607 7 258 0.0 0.0 0.00 0.00 0.00 90 1011.1
20260505114103 7 258 1.6 1.6 0.00 0.00 0.00 90 1011.0
20260505113559 7 258 0.0 0.0 0.00 0.00 0.00 90 1010.9
20260505113056 7 258 0.0 1.6 0.00 0.00 0.00 90 1011.0
20260505112552 7 258 0.0 0.0 0.00 0.00 0.00 89 1010.8
20260505112050 7 257 0.0 1.6 0.00 0.00 0.00 90 1011.2
20260505111544 7 257 1.6 3.2 0.00 0.00 0.00 89 1011.0
20260505111040 7 258 1.6 1.6 0.00 0.00 0.00 88 1011.2
20260505110537 7 258 1.6 1.6 0.00 0.00 0.00 88 1011.1
20260505102010 7 258 0.0 1.6 0.00 0.00 0.00 86 1010.3
20260505101508 7 258 0.0 0.0 0.00 0.00 0.00 85 1009.9
20260505101004 8 258 0.0 0.0 0.00 0.00 0.00 84 1009.8
20260505100501 8 258 0.0 0.0 0.00 0.00 0.00 84 1009.6
20260505095957 8 258 0.0 0.0 0.00 0.00 0.00 84 1009.5
20260505095454 8 258 0.0 1.6 0.00 0.00 0.00 85 1009.9
20260505094950 8 258 0.0 0.0 0.00 0.00 0.00 84 1009.9
20260505094447 8 258 0.0 0.0 0.00 0.00 0.00 83 1009.9
20260505093943 8 258 0.0 1.6 0.00 0.00 0.00 83 1010.0
20260505093440 8 258 0.0 0.0 0.00 0.00 0.00 82 1009.5
20260505092937 8 258 0.0 0.0 0.00 0.00 0.00 83 1009.4
20260505092435 8 256 0.0 3.2 0.00 0.00 0.00 82 1009.1
20260505091932 8 235 3.2 3.2 0.00 0.00 0.00 82 1009.1
20260505091430 8 290 1.6 1.6 0.00 0.00 0.00 82 1008.9
20260505090928 8 291 0.0 0.0 0.00 0.00 0.00 82 1008.9
20260505090426 8 291 0.0 1.6 0.00 0.00 0.00 82 1008.8
20260505085923 8 291 0.0 1.6 0.00 0.00 0.00 83 1008.3
20260505085420 8 286 1.6 1.6 0.00 0.00 0.00 83 1008.7
20260505084918 8 286 0.0 1.6 0.00 0.00 0.00 83 1008.9
20260505084416 8 286 0.0 0.0 0.00 0.00 0.00 81 1008.9
20260505083914 8 258 1.6 3.2 0.00 0.00 0.00 80 1009.1
20260505083411 8 259 1.6 3.2 0.00 0.00 0.00 81 1008.1
20260505082907 8 262 0.0 1.6 0.00 0.00 0.00 82 1008.0
20260505082403 8 258 1.6 3.2 0.00 0.00 0.00 80 1008.4
20260505081900 8 263 1.6 1.6 0.00 0.00 0.00 80 1008.9
20260505081357 8 262 1.6 1.6 0.00 0.00 0.00 80 1009.0
20260505080854 8 256 1.6 3.2 0.00 0.00 0.00 80 1009.1
20260505080350 8 292 1.6 3.2 0.00 0.00 0.00 77 1008.4
20260505075845 8 319 1.6 1.6 0.00 0.00 0.00 80 1007.8
20260505075342 8 350 0.0 1.6 0.00 0.00 0.00 79 1007.5
20260505074840 8 350 0.0 1.6 0.00 0.00 0.00 79 1007.6
20260505074337 8 350 0.0 3.2 0.00 0.00 0.00 77 1007.7
20260505073834 8 349 1.6 3.2 0.00 0.00 0.00 76 1007.6
20260505073332 8 8 6.4 8.0 0.00 0.00 0.00 74 1007.9
20260505072829 8 15 1.6 9.7 0.00 0.00 0.00 75 1008.0
20260505072325 8 347 4.8 8.0 0.00 0.00 0.00 73 1008.2
20260505071821 9 347 3.2 16.1 0.00 0.00 0.00 70 1008.0
20260505071317 9 354 4.8 9.7 0.00 0.00 0.00 68 1008.2
20260505070816 10 9 6.4 11.3 0.00 0.00 0.00 66 1008.3
20260505070312 10 25 9.7 16.1 0.00 0.00 0.00 63 1008.3
20260505065807 10 14 8.0 20.9 0.00 0.00 0.00 64 1008.3
20260505065304 10 340 16.1 24.1 0.00 0.00 0.00 63 1008.4